Weather History for KIAG - April, 2014

Change the Weather History Date:

Tuesday, April 8, 2014

  Actual Average Record
Temperature  
Mean Temperature 44 °F -  
Max Temperature 52 °F 50 °F 75 °F (1991)
Min Temperature 34 °F 32 °F 21 °F (2007)
Degree Days  
Heating Degree Days 22    
Moisture  
Dew Point 35 °F    
Average Humidity 88    
Maximum Humidity 96    
Minimum Humidity 49    
Precipitation  
Precipitation 0.47 in - - ()
Sea Level Pressure  
Sea Level Pressure 29.43 in    
Wind  
Wind Speed 11 mph (WNW)    
Max Wind Speed 20 mph    
Max Gust Speed 25 mph    
Visibility 6 miles    
Events Rain    
Averages and records for this station are not official NWS values.
T = Trace of Precipitation, MM = Missing Value Source: NWS Daily Summary

Daily Weather History Graph

Daily Weather History Graph

Search for Another Location

Airport or City:

Trip Planner

Search our weather history database for the weather conditions in past years. The results will help you decide how hot, cold, wet, or windy it might be!

Date:

Astronomy

Apr. 08, 2014 Rise Set
Actual Time 6:45 AM EDT 7:50 PM EDT
Civil Twilight 6:16 AM EDT 8:19 PM EDT
Nautical Twilight 5:41 AM EDT 8:54 PM EDT
Astronomical Twilight 5:05 AM EDT 9:30 PM EDT
Moon 1:33 PM EDT (4/8) 3:06 AM EDT (4/8)
Length of Visible Light 14h 02m
Length of Day
13h 04m
Waxing Gibbous, 62% of the Moon is Illuminated
Apr 8
Waxing Gibbous
Apr 15
Full
Apr 22
Last Quarter
Apr 29
New
May 6
First Quarter

Hourly Weather History & Observations

Time (EDT) Temp. Windchill Dew Point Humidity Pressure Visibility Wind Dir Wind Speed Gust Speed Precip Events Conditions
12:19 AM 39.0 °F 32.3 °F 37.0 °F 93% 29.44 in 7.0 mi ENE 10.4 mph - 0.01 in Rain Light Rain
12:53 AM 39.0 °F 31.8 °F 37.0 °F 93% 29.42 in 7.0 mi ENE 11.5 mph - 0.01 in   Overcast
1:16 AM 37.9 °F 30.0 °F 36.0 °F 93% 29.38 in 6.0 mi NE 12.7 mph - N/A   Overcast
1:37 AM 37.9 °F 30.5 °F 36.0 °F 93% 29.37 in 4.0 mi NE 11.5 mph - 0.02 in Rain Light Rain
1:50 AM 37.4 °F 31.4 °F 35.6 °F 93% 29.37 in 2.5 mi NE 8.1 mph - 0.07 in Rain Heavy Rain
1:53 AM 37.9 °F 31.5 °F 36.0 °F 93% 29.40 in 2.5 mi NNE 9.2 mph - 0.09 in Rain Heavy Rain
2:07 AM 37.0 °F 30.4 °F 36.0 °F 96% 29.37 in 3.0 mi NNE 9.2 mph - 0.06 in Rain Heavy Rain
2:42 AM 37.0 °F 29.3 °F 35.1 °F 93% 29.32 in 4.0 mi ENE 11.5 mph - 0.14 in Rain Rain
2:53 AM 37.0 °F 30.4 °F 35.1 °F 93% 29.34 in 6.0 mi ENE 9.2 mph - 0.16 in Rain Light Rain
3:53 AM 37.0 °F 31.6 °F 35.1 °F 93% 29.32 in 10.0 mi ENE 6.9 mph - 0.00 in   Overcast
4:53 AM 37.0 °F 34.5 °F 36.0 °F 96% 29.29 in 3.0 mi East 3.5 mph - 0.00 in   Overcast
5:00 AM 37.0 °F 33.3 °F 36.0 °F 96% 29.25 in 2.5 mi ENE 4.6 mph - 0.00 in   Overcast
5:26 AM 37.0 °F 34.5 °F 36.0 °F 96% 29.25 in 3.0 mi East 3.5 mph - 0.01 in Rain Light Rain
5:33 AM 37.9 °F - 36.0 °F 93% 29.24 in 2.0 mi Calm Calm - 0.02 in Rain Light Rain
5:51 AM 37.4 °F - 35.6 °F 93% 29.25 in 3.0 mi Calm Calm - 0.05 in Rain Rain
5:53 AM 37.9 °F - 35.1 °F 89% 29.28 in 3.0 mi Calm Calm - 0.05 in Rain Rain
6:09 AM 37.9 °F 34.4 °F 36.0 °F 93% 29.26 in 4.0 mi WNW 4.6 mph - 0.02 in Rain Light Rain
6:50 AM 37.4 °F 29.3 °F 35.6 °F 93% 29.26 in 5.0 mi NW 12.7 mph - 0.09 in Rain Rain
6:53 AM 37.0 °F 28.9 °F 35.1 °F 93% 29.30 in 5.0 mi WNW 12.7 mph - 0.09 in Rain Light Rain
7:00 AM 37.0 °F 28.1 °F 35.1 °F 93% 29.28 in 6.0 mi WNW 15.0 mph - 0.01 in Rain Light Rain
7:44 AM 36.0 °F 26.3 °F 34.0 °F 93% 29.32 in 2.5 mi NW 16.1 mph - 0.03 in Rain Light Rain
7:48 AM 35.6 °F 25.2 °F 33.8 °F 93% 29.33 in 1.8 mi NW 18.4 mph - 0.03 in Rain Light Rain
7:53 AM 36.0 °F 25.3 °F 34.0 °F 93% 29.36 in 1.8 mi NW 19.6 mph - 0.04 in Rain Light Rain
8:03 AM 35.1 °F 24.8 °F 34.0 °F 96% 29.34 in 2.0 mi NW 17.3 mph - 0.00 in Rain Light Rain
8:11 AM 35.1 °F 25.2 °F 34.0 °F 96% 29.35 in 3.0 mi NW 16.1 mph 23.0 mph 0.00 in Rain Light Rain
8:34 AM 35.1 °F 25.5 °F 34.0 °F 96% 29.36 in 2.0 mi WNW 15.0 mph - 0.00 in Rain Light Rain
8:53 AM 36.0 °F 26.3 °F 34.0 °F 93% 29.41 in 2.0 mi WNW 16.1 mph - 0.00 in Rain Light Rain
9:09 AM 36.0 °F 26.7 °F 34.0 °F 93% 29.38 in 3.0 mi WNW 15.0 mph - 0.00 in Rain Light Rain
9:24 AM 36.0 °F 26.7 °F 34.0 °F 93% 29.39 in 5.0 mi WNW 15.0 mph - 0.01 in Rain Light Rain
9:47 AM 35.6 °F 25.9 °F 33.8 °F 93% 29.41 in 5.0 mi West 16.1 mph - 0.01 in Rain Light Rain
9:53 AM 36.0 °F 26.3 °F 34.0 °F 93% 29.45 in 5.0 mi West 16.1 mph - 0.01 in Rain Light Rain
10:43 AM 37.0 °F 27.4 °F 35.1 °F 93% 29.44 in 10.0 mi West 17.3 mph - 0.01 in Rain Light Rain
10:53 AM 37.9 °F 28.9 °F 35.1 °F 89% 29.48 in 9.0 mi West 16.1 mph 23.0 mph 0.01 in Rain Light Rain
11:44 AM 39.0 °F 31.4 °F 36.0 °F 89% 29.48 in 10.0 mi West 12.7 mph 21.9 mph 0.01 in   Overcast
11:53 AM 39.0 °F 31.0 °F 35.1 °F 86% 29.52 in 10.0 mi West 13.8 mph - 0.01 in   Overcast
12:01 PM 39.0 °F 31.0 °F 35.1 °F 86% 29.49 in 10.0 mi West 13.8 mph - N/A   Overcast
12:53 PM 41.0 °F 34.7 °F 36.0 °F 82% 29.54 in 10.0 mi West 10.4 mph - N/A   Overcast
1:02 PM 42.1 °F 34.9 °F 36.0 °F 79% 29.52 in 10.0 mi West 13.8 mph - N/A   Overcast
1:53 PM 44.1 °F 36.5 °F 35.1 °F 71% 29.56 in 10.0 mi West 17.3 mph - N/A   Overcast
2:53 PM 46.9 °F - 35.1 °F 63% 29.57 in 10.0 mi WNW 19.6 mph 25.3 mph N/A   Mostly Cloudy
3:53 PM 50.0 °F - 35.1 °F 57% 29.58 in 10.0 mi WNW 18.4 mph - N/A   Mostly Cloudy
4:53 PM 52.0 °F - 33.1 °F 49% 29.60 in 10.0 mi WNW 11.5 mph - N/A   Mostly Cloudy
5:53 PM 48.0 °F - 39.0 °F 71% 29.62 in 10.0 mi South 9.2 mph - N/A   Scattered Clouds
6:53 PM 44.1 °F 39.0 °F 37.0 °F 76% 29.66 in 10.0 mi SSW 9.2 mph - N/A   Partly Cloudy
7:53 PM 41.0 °F 38.0 °F 36.0 °F 82% 29.69 in 10.0 mi SW 4.6 mph - N/A   Partly Cloudy
8:53 PM 39.0 °F 34.0 °F 34.0 °F 82% 29.72 in 10.0 mi South 6.9 mph - N/A   Mostly Cloudy
9:53 PM 37.0 °F 32.4 °F 33.1 °F 86% 29.74 in 10.0 mi SSW 5.8 mph - N/A   Mostly Cloudy
10:53 PM 35.1 °F 30.1 °F 32.0 °F 89% 29.75 in 10.0 mi SSW 5.8 mph - N/A   Scattered Clouds
11:53 PM 34.0 °F 28.8 °F 30.9 °F 89% 29.76 in 5.0 mi SSW 5.8 mph - N/A   Mostly Cloudy